This is the latest recevied weather packets stored in our database for station/object KD6VEX-1. If no packets are shown the sender has not sent any weather packets the latest 10 day(s).
| Time | Temp. | Humidity | Pressure | Rain* | Wind** | Luminosity | Snow |
|---|---|---|---|---|---|---|---|
| 1777518822 | 14.44° C | 78% | 1015.4 hPa | 0 mm | - | - | - |
| 1777518522 | 15° C | 78% | 1015.3 hPa | 0 mm | - | - | - |
| 1777517922 | 15° C | 77% | 1015.2 hPa | 0 mm | - | - | - |
| 1777517322 | 15° C | 77% | 1015.1 hPa | 0 mm | - | - | - |
| 1777516724 | 15.56° C | 75% | 1014.9 hPa | 0 mm | - | - | - |
| 1777516123 | 16.11° C | 74% | 1014.8 hPa | 0 mm | - | - | - |
| 1777515522 | 16.67° C | 72% | 1014.7 hPa | 0 mm | - | - | - |
| 1777515223 | 16.67° C | 72% | 1014.7 hPa | 0 mm | - | - | - |
| 1777514922 | 16.67° C | 71% | 1014.7 hPa | 0 mm | - | - | - |
| 1777514322 | 17.22° C | 68% | 1014.6 hPa | 0 mm | - | - | - |
| 1777514023 | 17.78° C | 67% | 1014.6 hPa | 0 mm | - | - | - |
| 1777513722 | 18.33° C | 66% | 1014.7 hPa | 0 mm | - | - | - |
| 1777513122 | 18.89° C | 63% | 1014.7 hPa | 0 mm | - | - | - |
| 1777512523 | 19.44° C | 60% | 1014.6 hPa | 0 mm | - | - | - |
| 1777511922 | 20° C | 59% | 1014.5 hPa | 0 mm | - | - | - |
| 1777511622 | 20.56° C | 58% | 1014.5 hPa | 0 mm | - | - | - |
| 1777511322 | 20.56° C | 57% | 1014.4 hPa | 0 mm | - | - | - |
| 1777510722 | 21.11° C | 55% | 1014.2 hPa | 0 mm | - | - | - |
| 1777510422 | 21.67° C | 54% | 1014.2 hPa | 0 mm | - | - | - |
| 1777510122 | 21.67° C | 52% | 1014.3 hPa | 0 mm | - | - | - |
| 1777509523 | 22.22° C | 50% | 1014.3 hPa | 0 mm | - | - | - |
| 1777509222 | 22.22° C | 50% | 1014.2 hPa | 0 mm | - | - | - |
| 1777508924 | 22.78° C | 50% | 1014.2 hPa | 0 mm | - | - | - |
| 1777508323 | 23.33° C | 48% | 1014.2 hPa | 0 mm | - | - | - |
| 1777508022 | 23.33° C | 48% | 1014.1 hPa | 0 mm | - | - | - |
* Rain latest hour (hover to see other rain measurements)
** Current wind speed in m/s (hover to see current wind gust speed)